FW5336 Weather Reports


Display with metric or nautical units.
time (UTC)temp
F
wind
direction
speed
MPH
gust
MPH
rain 1hr
in
rain 24hr
in
rain mn
in
humidity
%
barometer
mb
20260902065547 75 242 0.0 0.0 0.00 0.00 0.00 90 1016.4
20260902065042 76 239 0.0 0.0 0.00 0.00 0.00 90 1016.4
20260902064538 75 234 0.0 1.0 0.00 0.00 0.00 90 1016.2
20260902064033 75 232 0.0 0.0 0.00 0.00 0.00 90 1016.2
20260902063533 75 235 0.0 0.0 0.00 0.00 0.00 90 1016.5
20260902063028 75 235 0.0 0.0 0.00 0.00 0.00 89 1016.5
20260902062526 75 239 0.0 0.0 0.00 0.00 0.00 89 1016.5
20260902062022 75 239 0.0 0.0 0.00 0.00 0.00 89 1016.6
20260902061517 76 236 0.0 0.0 0.00 0.00 0.00 89 1016.5
20260902061013 76 234 0.0 0.0 0.00 0.00 0.00 89 1016.5
20260902060509 76 234 0.0 0.0 0.00 0.00 0.00 89 1016.7
20260902060005 76 235 0.0 0.0 0.00 0.00 0.00 89 1016.9
20260902055501 76 237 0.0 0.0 0.00 0.00 0.00 88 1017.0
20260902054956 76 232 0.0 0.0 0.00 0.00 0.00 88 1017.0
20260902054455 76 235 0.0 0.0 0.00 0.00 0.00 88 1016.9
20260902053951 76 231 0.0 0.0 0.00 0.00 0.00 88 1017.0
20260902053447 76 234 0.0 0.0 0.00 0.00 0.00 88 1016.9
20260902052945 76 234 0.0 0.0 0.00 0.00 0.00 88 1016.7
20260902052441 76 234 0.0 0.0 0.00 0.00 0.00 88 1016.7
20260902051936 76 234 0.0 0.0 0.00 0.00 0.00 88 1017.0
20260902051431 76 234 0.0 0.0 0.00 0.00 0.00 88 1016.7
20260902050930 76 234 0.0 0.0 0.00 0.00 0.00 88 1016.9
20260902050429 76 227 0.0 1.0 0.00 0.00 0.00 88 1016.6
20260902045924 77 239 0.0 0.0 0.00 0.00 0.00 87 1016.7
20260902045420 77 245 0.0 0.0 0.00 0.00 0.00 87 1017.0
20260902044916 77 248 0.0 0.0 0.00 0.00 0.00 87 1017.1
20260902044411 77 233 0.0 0.0 0.00 0.00 0.00 87 1016.9
20260902043906 77 239 0.0 0.0 0.00 0.00 0.00 87 1016.9
20260902043402 77 252 1.0 1.0 0.00 0.00 0.00 87 1016.7
20260902042857 77 235 0.0 0.0 0.00 0.00 0.00 88 1016.7
20260902042356 77 232 0.0 0.0 0.00 0.00 0.00 88 1016.9
20260902041851 77 239 0.0 0.0 0.00 0.00 0.00 88 1016.9
20260902041346 77 239 0.0 0.0 0.00 0.00 0.00 88 1017.0
20260902040845 77 239 0.0 0.0 0.00 0.00 0.00 87 1017.0
20260902040340 77 239 0.0 0.0 0.00 0.00 0.00 87 1016.9
20260902035838 77 242 0.0 0.0 0.00 0.00 0.00 87 1016.9
20260902035335 77 241 0.0 0.0 0.00 0.00 0.00 87 1016.6
20260902034833 77 239 0.0 0.0 0.00 0.00 0.00 87 1016.6
20260902034329 77 237 0.0 0.0 0.00 0.00 0.00 87 1016.7
20260902033826 77 245 0.0 0.0 0.00 0.00 0.00 86 1016.6
20260902033322 77 245 0.0 0.0 0.00 0.00 0.00 86 1016.7
20260902032821 77 245 0.0 0.0 0.00 0.00 0.00 86 1016.4
20260902032316 77 239 0.0 0.0 0.00 0.00 0.00 86 1016.4
20260902031815 77 239 0.0 0.0 0.00 0.00 0.00 86 1016.5
20260902031312 78 242 0.0 0.0 0.00 0.00 0.00 85 1016.4
20260902030807 78 225 0.0 1.0 0.00 0.00 0.00 85 1016.3
20260902030302 78 248 0.0 0.0 0.00 0.00 0.00 85 1016.4
20260902025801 78 239 0.0 0.0 0.00 0.00 0.00 85 1016.4
20260902025257 78 232 0.0 1.0 0.00 0.00 0.00 84 1016.3
20260902024750 78 231 0.0 1.0 0.00 0.00 0.00 84 1016.3
20260902024246 78 217 0.0 1.0 0.00 0.00 0.00 84 1016.2
20260902023742 78 233 0.0 0.0 0.00 0.00 0.00 84 1016.4
20260902023237 78 232 0.0 0.0 0.00 0.00 0.00 84 1016.5
20260902022736 78 232 0.0 1.0 0.00 0.00 0.00 84 1016.3
20260902022232 78 235 0.0 0.0 0.00 0.00 0.00 84 1016.3
20260902021728 79 239 0.0 0.0 0.00 0.00 0.00 83 1016.4
20260902021227 79 241 0.0 0.0 0.00 0.00 0.00 83 1016.4
20260902020724 79 239 0.0 0.0 0.00 0.00 0.00 83 1016.3
20260902020219 79 242 0.0 0.0 0.00 0.00 0.00 82 1016.4
20260902015714 79 232 0.0 1.0 0.00 0.00 0.00 82 1016.4
20260902015211 80 247 0.0 0.0 0.00 0.00 0.00 82 1016.6
20260902014706 80 242 0.0 1.0 0.00 0.00 0.00 82 1016.7
20260902014203 80 241 0.0 0.0 0.00 0.00 0.00 81 1016.7
20260902013701 80 240 1.0 2.0 0.00 0.00 0.00 81 1016.7
20260902013156 80 252 0.0 2.0 0.00 0.00 0.00 81 1016.7
20260902012652 80 254 0.0 1.0 0.00 0.00 0.00 81 1016.6
20260902012147 80 255 1.0 1.0 0.00 0.00 0.00 80 1016.7
20260902011643 80 255 0.0 1.0 0.00 0.00 0.00 80 1016.6
20260902011137 80 261 1.0 2.0 0.00 0.00 0.00 80 1016.6
20260902010636 80 255 0.0 1.0 0.00 0.00 0.00 80 1016.4
20260902010133 81 248 0.0 1.0 0.00 0.00 0.00 80 1016.4
20260902005630 81 229 1.0 3.0 0.00 0.00 0.00 80 1016.2
20260902005126 81 252 0.0 1.0 0.00 0.00 0.00 79 1016.2
20260902004626 81 252 1.0 1.0 0.00 0.00 0.00 79 1016.1
20260902004121 81 252 0.0 2.0 0.00 0.00 0.00 78 1015.9
20260902003616 81 230 2.0 2.0 0.00 0.00 0.00 78 1016.1
20260902003112 82 269 0.0 1.0 0.00 0.00 0.00 79 1016.2
20260902002607 82 273 1.0 3.0 0.00 0.00 0.00 79 1016.1
20260902002102 82 240 1.0 1.0 0.00 0.00 0.00 79 1016.2
20260902001556 82 279 1.0 5.0 0.00 0.00 0.00 79 1016.1
20260902001052 82 269 1.0 5.0 0.00 0.00 0.00 79 1016.0
20260902000547 82 260 3.0 6.0 0.00 0.00 0.00 79 1016.1
20260902000042 82 242 1.0 1.0 0.00 0.00 0.00 79 1016.0
20260901235536 83 279 1.0 2.0 0.00 0.00 0.00 78 1016.0
20260901235032 83 237 1.0 3.0 0.00 0.00 0.00 78 1016.1
20260901234530 83 252 0.0 2.0 0.00 0.00 0.00 77 1016.1
20260901234026 83 253 0.0 2.0 0.00 0.00 0.00 77 1016.1
20260901233525 84 247 1.0 1.0 0.00 0.00 0.00 76 1016.1
20260901233022 84 281 3.0 6.0 0.00 0.00 0.00 76 1016.1
20260901232517 84 314 2.0 6.0 0.00 0.00 0.00 76 1015.9
20260901232012 84 271 3.0 3.0 0.00 0.00 0.00 75 1015.9
20260901231509 84 223 3.0 6.0 0.00 0.00 0.00 75 1016.2
20260901231005 85 246 0.0 1.0 0.00 0.00 0.00 75 1016.0
20260901230504 85 303 2.0 9.0 0.00 0.00 0.00 74 1016.2
20260901225959 85 259 1.0 2.0 0.00 0.00 0.00 74 1016.1
20260901225454 86 268 0.0 6.0 0.00 0.00 0.00 73 1016.2
20260901224949 87 278 1.0 6.0 0.00 0.00 0.00 72 1016.2
20260901224444 87 247 1.0 2.0 0.00 0.00 0.00 72 1016.2
20260901223941 87 267 2.0 3.0 0.00 0.00 0.00 72 1016.0
20260901223436 87 267 2.0 5.0 0.00 0.00 0.00 72 1016.1
20260901222932 87 262 1.0 7.0 0.00 0.00 0.00 72 1016.1
20260901222428 88 270 5.0 7.0 0.00 0.00 0.00 71 1016.1
20260901221924 87 197 2.0 7.0 0.00 0.00 0.00 72 1016.2
20260901221419 87 259 0.0 2.0 0.00 0.00 0.00 73 1016.1
20260901220914 89 286 1.0 3.0 0.00 0.00 0.00 71 1016.2
20260901220413 89 280 1.0 2.0 0.00 0.00 0.00 72 1016.0
20260901215912 89 301 1.0 3.0 0.00 0.00 0.00 73 1015.7
20260901215411 88 209 0.0 3.0 0.00 0.00 0.00 73 1015.8
20260901214910 89 241 1.0 3.0 0.00 0.00 0.00 72 1016.0
20260901214409 89 245 0.0 1.0 0.00 0.00 0.00 73 1015.6
20260901213908 89 232 1.0 6.0 0.00 0.00 0.00 71 1015.7
20260901213403 90 268 1.0 2.0 0.00 0.00 0.00 70 1015.7
20260901212902 89 205 0.0 2.0 0.00 0.00 0.00 71 1015.8
20260901212358 89 269 1.0 5.0 0.00 0.00 0.00 72 1015.7
20260901211855 89 223 0.0 7.0 0.00 0.00 0.00 71 1015.6
20260901211350 89 301 3.0 3.0 0.00 0.00 0.00 71 1015.8
20260901210846 89 243 4.0 6.0 0.00 0.00 0.00 70 1015.6
20260901210341 90 246 1.0 1.0 0.00 0.00 0.00 70 1015.7
20260901205838 90 296 2.0 7.0 0.00 0.00 0.00 69 1015.7
20260901205337 91 228 0.0 2.0 0.00 0.00 0.00 68 1015.8
20260901204832 92 243 2.0 3.0 0.00 0.00 0.00 66 1016.0
20260901204328 90 215 1.0 6.0 0.00 0.00 0.00 69 1015.9
20260901203824 90 94 1.0 5.0 0.00 0.00 0.00 70 1015.8
20260901203322 90 253 2.0 8.0 0.00 0.00 0.00 69 1015.9
20260901202817 91 292 3.0 5.0 0.00 0.00 0.00 68 1015.7
20260901202307 91 238 3.0 6.0 0.00 0.00 0.00 68 1015.9
20260901201803 90 308 1.0 5.0 0.00 0.00 0.00 67 1015.9
20260901201302 90 254 3.0 5.0 0.00 0.00 0.00 69 1015.8
20260901200756 92 275 2.0 6.0 0.00 0.00 0.00 66 1015.9
20260901200252 91 264 4.0 6.0 0.00 0.00 0.00 67 1016.1
20260901195750 91 259 1.0 2.0 0.00 0.00 0.00 68 1015.9
20260901195250 91 305 5.0 7.0 0.00 0.00 0.00 66 1015.9
20260901194745 91 287 3.0 6.0 0.00 0.00 0.00 67 1016.0
20260901194240 91 279 1.0 2.0 0.00 0.00 0.00 68 1015.9
20260901193736 90 274 0.0 3.0 0.00 0.00 0.00 69 1016.2
20260901193235 90 281 2.0 6.0 0.00 0.00 0.00 66 1016.1
20260901192730 90 271 1.0 2.0 0.00 0.00 0.00 67 1016.1
20260901192225 90 278 3.0 7.0 0.00 0.00 0.00 66 1016.2
20260901191721 90 286 2.0 6.0 0.00 0.00 0.00 66 1016.3
20260901191218 91 263 1.0 6.0 0.00 0.00 0.00 65 1016.3
20260901190713 92 298 3.0 5.0 0.00 0.00 0.00 63 1016.0
20260901190212 92 252 4.0 7.0 0.00 0.00 0.00 62 1016.0
20260901185711 93 224 0.0 5.0 0.00 0.00 0.00 63 1016.2
20260901185209 92 203 2.0 9.0 0.00 0.00 0.00 63 1016.2
20260901184706 93 309 5.0 9.0 0.00 0.00 0.00 63 1016.1
20260901184200 92 249 0.0 3.0 0.00 0.00 0.00 65 1015.9
20260901183656 92 271 0.0 2.0 0.00 0.00 0.00 65 1015.9
20260901183155 91 94 1.0 2.0 0.00 0.00 0.00 66 1015.8
20260901182652 91 215 1.0 3.0 0.00 0.00 0.00 65 1015.7
20260901182150 91 271 1.0 2.0 0.00 0.00 0.00 64 1015.7
20260901181645 92 248 5.0 7.0 0.00 0.00 0.00 62 1015.8
20260901181139 93 238 4.0 6.0 0.00 0.00 0.00 61 1015.6
20260901180634 92 266 1.0 5.0 0.00 0.00 0.00 63 1015.6
20260901180128 93 212 1.0 6.0 0.00 0.00 0.00 61 1015.8
20260901175627 92 291 2.0 6.0 0.00 0.00 0.00 62 1015.8
20260901175122 93 250 1.0 2.0 0.00 0.00 0.00 61 1015.7
20260901174617 93 252 1.0 3.0 0.00 0.00 0.00 60 1015.9
20260901174114 93 256 4.0 6.0 0.00 0.00 0.00 60 1015.7
20260901173614 93 263 3.0 3.0 0.00 0.00 0.00 59 1016.0
20260901173109 93 272 1.0 2.0 0.00 0.00 0.00 60 1016.1
20260901172605 92 252 1.0 5.0 0.00 0.00 0.00 63 1015.9
20260901172103 92 244 2.0 5.0 0.00 0.00 0.00 61 1015.9
20260901171602 91 252 2.0 2.0 0.00 0.00 0.00 62 1016.2
20260901171056 91 252 0.0 2.0 0.00 0.00 0.00 65 1016.2
20260901170555 91 251 1.0 1.0 0.00 0.00 0.00 65 1016.2
20260901170050 91 266 4.0 6.0 0.00 0.00 0.00 63 1016.3
20260901165544 91 28 0.0 5.0 0.00 0.00 0.00 63 1016.4
20260901165040 91 253 1.0 1.0 0.00 0.00 0.00 64 1016.4
20260901164535 89 247 2.0 2.0 0.00 0.00 0.00 67 1016.7
20260901164030 89 258 1.0 5.0 0.00 0.00 0.00 68 1016.6
20260901163525 89 288 2.0 6.0 0.00 0.00 0.00 67 1016.7
20260901163025 90 291 1.0 5.0 0.00 0.00 0.00 66 1016.9
20260901162520 89 245 1.0 3.0 0.00 0.00 0.00 65 1016.9
20260901162019 88 251 1.0 2.0 0.00 0.00 0.00 68 1017.0
20260901161518 88 252 1.0 1.0 0.00 0.00 0.00 67 1016.6
20260901161018 88 228 2.0 5.0 0.00 0.00 0.00 67 1016.9
20260901160515 88 263 1.0 1.0 0.00 0.00 0.00 68 1017.1
20260901160014 88 257 2.0 3.0 0.00 0.00 0.00 68 1016.7
20260901155508 88 272 1.0 3.0 0.00 0.00 0.00 68 1016.9
20260901155004 89 252 1.0 3.0 0.00 0.00 0.00 67 1017.0
20260901154504 87 294 2.0 2.0 0.00 0.00 0.00 69 1017.0
20260901153958 87 247 2.0 3.0 0.00 0.00 0.00 71 1017.0
20260901153453 87 3 2.0 2.0 0.00 0.00 0.00 69 1017.3
20260901152952 87 272 2.0 6.0 0.00 0.00 0.00 70 1017.2
20260901152447 86 230 0.0 3.0 0.00 0.00 0.00 70 1017.1
20260901151947 86 246 1.0 2.0 0.00 0.00 0.00 71 1017.2
20260901151442 85 211 3.0 5.0 0.00 0.00 0.00 72 1017.4
20260901150941 86 241 1.0 5.0 0.00 0.00 0.00 71 1017.1
20260901150439 84 241 1.0 3.0 0.00 0.00 0.00 73 1017.3
20260901145937 84 264 1.0 6.0 0.00 0.00 0.00 73 1017.3
20260901145431 83 249 1.0 2.0 0.00 0.00 0.00 75 1017.4
20260901144926 82 265 2.0 5.0 0.00 0.00 0.00 78 1017.8
20260901144421 81 275 0.0 3.0 0.00 0.00 0.00 78 1017.7
20260901143917 82 237 1.0 2.0 0.00 0.00 0.00 79 1017.4
20260901143413 82 267 0.0 1.0 0.00 0.00 0.00 79 1017.5
20260901142909 81 240 1.0 1.0 0.00 0.00 0.00 79 1017.4
20260901142408 80 230 0.0 2.0 0.00 0.00 0.00 80 1017.4
20260901141903 80 275 1.0 2.0 0.00 0.00 0.00 80 1017.7
20260901141358 80 268 1.0 3.0 0.00 0.00 0.00 80 1017.6
20260901140857 80 277 2.0 5.0 0.00 0.00 0.00 81 1017.4
20260901140355 79 263 0.0 1.0 0.00 0.00 0.00 81 1017.2
20260901135850 79 243 1.0 2.0 0.00 0.00 0.00 82 1017.1
20260901135346 79 281 1.0 5.0 0.00 0.00 0.00 82 1017.1
20260901134841 79 271 0.0 1.0 0.00 0.00 0.00 83 1016.9
20260901134337 78 254 0.0 3.0 0.00 0.00 0.00 82 1017.0
20260901133831 79 269 1.0 1.0 0.00 0.00 0.00 81 1016.5
20260901133330 78 250 1.0 1.0 0.00 0.00 0.00 83 1016.5
20260901132828 78 284 2.0 3.0 0.00 0.00 0.00 84 1016.5
20260901132324 78 270 1.0 2.0 0.00 0.00 0.00 84 1016.6
20260901131818 77 254 3.0 5.0 0.00 0.00 0.00 85 1016.7
20260901131317 77 247 0.0 1.0 0.00 0.00 0.00 85 1016.7
20260901130812 78 282 0.0 1.0 0.00 0.00 0.00 85 1016.7
20260901130307 77 248 0.0 1.0 0.00 0.00 0.00 86 1016.9
20260901125804 77 254 0.0 1.0 0.00 0.00 0.00 86 1016.7
20260901125259 77 247 0.0 2.0 0.00 0.00 0.00 87 1016.7
20260901124754 76 257 0.0 2.0 0.00 0.00 0.00 88 1017.1
20260901124249 76 255 0.0 1.0 0.00 0.00 0.00 88 1017.2
20260901123748 76 258 1.0 1.0 0.00 0.00 0.00 88 1017.1
20260901123243 76 259 2.0 5.0 0.00 0.00 0.00 88 1017.1
20260901122742 76 262 0.0 2.0 0.00 0.00 0.00 88 1017.1
20260901122236 76 274 0.0 1.0 0.00 0.00 0.00 89 1017.1
20260901121731 76 299 1.0 2.0 0.00 0.00 0.00 89 1017.0
20260901121226 76 245 0.0 1.0 0.00 0.00 0.00 90 1017.1
20260901120726 75 237 0.0 2.0 0.00 0.00 0.00 91 1017.1
20260901120221 75 248 0.0 1.0 0.00 0.00 0.00 92 1017.0
20260901115715 74 242 0.0 2.0 0.00 0.00 0.00 93 1016.9
20260901115212 74 246 0.0 2.0 0.00 0.00 0.00 93 1017.1
20260901114709 74 249 1.0 2.0 0.00 0.00 0.00 93 1017.0
20260901114208 74 258 0.0 1.0 0.00 0.00 0.00 93 1017.0
20260901113702 74 241 0.0 0.0 0.00 0.00 0.00 93 1017.0
20260901113157 74 249 0.0 0.0 0.00 0.00 0.00 93 1016.9
20260901112656 73 267 1.0 2.0 0.00 0.00 0.00 93 1016.5
20260901112150 73 264 0.0 1.0 0.00 0.00 0.00 93 1016.9
20260901111649 73 265 0.0 0.0 0.00 0.00 0.00 93 1016.6
20260901111144 73 245 0.0 1.0 0.00 0.00 0.00 93 1016.6
20260901110639 73 239 0.0 1.0 0.00 0.00 0.00 93 1016.6
20260901110134 73 245 1.0 1.0 0.00 0.00 0.00 93 1016.5
20260901105631 74 293 2.0 2.0 0.00 0.00 0.00 92 1016.6
20260901105130 74 236 0.0 3.0 0.00 0.00 0.00 92 1016.6
20260901104626 74 235 0.0 2.0 0.00 0.00 0.00 92 1016.5
20260901104121 74 239 0.0 1.0 0.00 0.00 0.00 92 1016.4
20260901103615 74 236 0.0 0.0 0.00 0.00 0.00 92 1016.6
20260901103110 74 235 1.0 2.0 0.00 0.00 0.00 92 1016.3
20260901102604 74 297 0.0 1.0 0.00 0.00 0.00 91 1016.4
20260901102059 74 239 0.0 3.0 0.00 0.00 0.00 91 1016.4
20260901101555 74 239 0.0 1.0 0.00 0.00 0.00 91 1016.6
20260901101054 74 241 1.0 1.0 0.00 0.00 0.00 91 1016.6
20260901100549 75 225 1.0 2.0 0.00 0.00 0.00 91 1016.5
20260901100048 75 245 2.0 3.0 0.00 0.00 0.00 91 1016.4
20260901095547 75 239 0.0 0.0 0.00 0.00 0.00 90 1016.3
20260901095044 75 225 2.0 2.0 0.00 0.00 0.00 90 1016.2
20260901094540 75 245 1.0 2.0 0.00 0.00 0.00 90 1016.3
20260901094039 75 239 0.0 2.0 0.00 0.00 0.00 90 1016.5
20260901093534 75 256 1.0 2.0 0.00 0.00 0.00 90 1016.3
20260901093029 75 241 1.0 2.0 0.00 0.00 0.00 90 1016.4
20260901092525 75 242 0.0 1.0 0.00 0.00 0.00 89 1016.0
20260901092021 75 239 1.0 2.0 0.00 0.00 0.00 89 1016.2
20260901091516 75 248 1.0 1.0 0.00 0.00 0.00 89 1016.0
20260901091016 75 239 1.0 2.0 0.00 0.00 0.00 89 1016.0
20260901090515 75 242 1.0 2.0 0.00 0.00 0.00 89 1015.8
20260901090011 75 234 0.0 1.0 0.00 0.00 0.00 90 1016.0
20260901085507 75 242 0.0 1.0 0.00 0.00 0.00 90 1016.0
20260901085003 75 256 0.0 1.0 0.00 0.00 0.00 90 1016.3
20260901084458 75 241 0.0 1.0 0.00 0.00 0.00 91 1016.1
20260901083954 75 239 0.0 3.0 0.00 0.00 0.00 91 1016.1
20260901083449 75 252 1.0 2.0 0.00 0.00 0.00 91 1016.1
20260901082947 75 239 1.0 5.0 0.00 0.00 0.00 92 1016.0
20260901082442 74 242 0.0 1.0 0.00 0.00 0.00 92 1016.1
20260901081937 74 252 1.0 2.0 0.00 0.00 0.00 93 1016.0
20260901081432 74 241 0.0 1.0 0.00 0.00 0.00 93 1015.9
20260901080926 74 236 0.0 1.0 0.00 0.00 0.00 93 1016.1
20260901080421 74 227 0.0 1.0 0.00 0.00 0.00 93 1015.9
20260901075915 74 239 0.0 0.0 0.00 0.00 0.00 93 1016.0
20260901075411 74 239 0.0 1.0 0.00 0.00 0.00 93 1015.8
20260901074910 74 239 0.0 1.0 0.00 0.00 0.00 93 1016.0
20260901074405 74 201 0.0 1.0 0.00 0.00 0.00 93 1016.1
20260901073901 74 242 0.0 1.0 0.00 0.00 0.00 93 1016.1
20260901073356 74 239 0.0 0.0 0.00 0.00 0.00 93 1016.3
20260901072852 74 239 0.0 0.0 0.00 0.00 0.00 93 1016.2
20260901072352 74 239 0.0 0.0 0.00 0.00 0.00 93 1016.1
20260901071847 74 223 0.0 0.0 0.00 0.00 0.00 93 1016.3
20260901071345 74 242 0.0 0.0 0.00 0.00 0.00 92 1016.2
20260901070844 74 239 0.0 0.0 0.00 0.00 0.00 92 1016.1
20260901070340 74 229 0.0 0.0 0.00 0.00 0.00 92 1016.1
20260901065839 74 241 0.0 1.0 0.00 0.00 0.00 92 1016.0